Location: Canet
(43.3261°N, 5.3723°E)
Time: 19:06:03
(UTC+00:00)

CSL-04 Debris - Pass Details

Date: 24 January 2021
Orbit: 827 x 847 km, 98.9° (Epoch: 02 March)

Event Time Altitude Azimuth Distance (km) Brightness Sun altitude
Rises 18:16:39 0° 152° (SSE) 3,358 7.1 -17.5°
Reaches altitude 10° 18:19:01 10° 149° (SSE) 2,427 6.4 -18.0°
Maximum altitude 18:24:17 58° 71° (ENE) 961 4.1 -18.9°
Drops below altitude 10° 18:29:34 10° 354° (N) 2,441 6.6 -19.8°
Sets 18:31:57 0° 350° (N) 3,379 7.4 -20.3°
